Hourly Data Report for October 03, 2017

All times are specified in Local Standard Time (LST). Add 1 hour to adjust for Daylight Saving Time where and when it is observed.

YARMOUTH A
NOVA SCOTIA

43°49'37.000" N
66°05'17.000" W
42.90 m
8206495
71603
YQI

Download Data

Hourly Data (October 2017)
Hourly Data Report for October 3, 2017
Temp Definition
°C
Dew Point Temp Definition
°C
Rel Hum Definition
%
Wind Dir Definition
10's deg

Wind Spd Definition
km/h
Visibility Definition
km
Stn Press Definition
kPa
Hmdx Definition


Wind Chill Definition


Weather Definition


TIME
00:00 Legend Double Dagger 5.7 2.6 80 7 9 24.1 102.89     LegendNANA
01:00 Legend Double Dagger 5.2 2.5 83 9 5 24.1 102.95     LegendNANA
02:00 Legend Double Dagger 4.4 2.5 87 7 7 24.1 102.96     Mainly Clear
03:00 Legend Double Dagger 2.7 1.4 91 34 8 24.1 103.02     LegendNANA
04:00 Legend Double Dagger 2.4 0.8 90 3 9 24.1 103.06     LegendNANA
05:00 Legend Double Dagger 3.2 1.4 88 1 8 24.1 103.14     Clear
06:00 Legend Double Dagger 3.3 1.8 90 35 5 24.1 103.20     LegendNANA
07:00 Legend Double Dagger 3.6 2.3 91 2 9 24.1 103.27     LegendNANA
08:00 Legend Double Dagger 8.0 4.3 78 5 10 24.1 103.27     Clear
09:00 Legend Double Dagger 10.5 4.6 67 4 12 24.1 103.27     LegendNANA
10:00 Legend Double Dagger 11.8 3.8 57 6 9 24.1 103.31     LegendNANA
11:00 Legend Double Dagger 12.5 3.3 53 28 5 24.1 103.26     Mainly Clear
12:00 Legend Double Dagger 12.6 4.7 58 30 16 24.1 103.26     LegendNANA
13:00 Legend Double Dagger 12.9 5.3 60 29 18 24.1 103.21     LegendNANA
14:00 Legend Double Dagger 13.0 5.8 61 29 18 24.1 103.15     Mostly Cloudy
15:00 Legend Double Dagger 13.1 5.9 61 31 16 24.1 103.14     LegendNANA
16:00 Legend Double Dagger 12.3 4.6 59 28 17 24.1 103.04     LegendNANA
17:00 Legend Double Dagger 11.5 4.7 63 29 12 24.1 103.01     Mostly Cloudy
18:00 Legend Double Dagger 9.9 4.8 70 28 10 24.1 102.97     LegendNANA
19:00 Legend Double Dagger 8.8 4.7 75 27 10 24.1 102.93     LegendNANA
20:00 Legend Double Dagger 9.8 5.8 76 27 14 24.1 102.86     Mostly Cloudy
21:00 Legend Double Dagger 10.2 5.8 74 26 15 24.1 102.79     LegendNANA
22:00 Legend Double Dagger 10.1 6.1 76 26 13 24.1 102.77     LegendNANA
23:00 Legend Double Dagger 9.6 6.0 78 26 11 24.1 102.75     Clear

Notes on Data Quality.

Legend

  • E = Estimated
  • M = Missing
  • NA = Not Available
  • ‡ = Partner data that is not subject to review by the National Climate Archives
Date modified: